This is the latest recevied weather packets stored in our database for station/object HA2SKA-1. If no packets are shown the sender has not sent any weather packets the latest 10 day(s).
| Time | Temp. | Humidity | Pressure | Rain* | Wind** | Luminosity | Snow |
|---|---|---|---|---|---|---|---|
| 1788357014 | 32.22° C | 39% | 1021.4 hPa | - | - | - | - |
| 1788356114 | 32.22° C | 39% | 1021.4 hPa | - | - | - | - |
| 1788355214 | 32.78° C | 38% | 1021.4 hPa | - | - | - | - |
| 1788354314 | 31.11° C | 38% | 1021.6 hPa | - | - | - | - |
| 1788353414 | 32.22° C | 39% | 1021.9 hPa | - | - | - | - |
| 1788352514 | 32.22° C | 38% | 1022 hPa | - | - | - | - |
| 1788351614 | 31.11° C | 39% | 1022.3 hPa | - | - | - | - |
| 1788350714 | 31.67° C | 39% | 1022.5 hPa | - | - | - | - |
| 1788349813 | 32.22° C | 40% | 1022.7 hPa | - | - | - | - |
| 1788348913 | 30.56° C | 41% | 1022.8 hPa | - | - | - | - |
| 1788348013 | 31.11° C | 42% | 1023.2 hPa | - | - | - | - |
| 1788347113 | 31.67° C | 41% | 1023.3 hPa | - | - | - | - |
| 1788346213 | 31.11° C | 42% | 1023.4 hPa | - | - | - | - |
| 1788345313 | 31.11° C | 43% | 1023.5 hPa | - | - | - | - |
| 1788344413 | 30° C | 44% | 1023.5 hPa | - | - | - | - |
| 1788343513 | 31.11° C | 42% | 1023.7 hPa | - | - | - | - |
| 1788342613 | 30.56° C | 43% | 1023.9 hPa | - | - | - | - |
| 1788341713 | 30.56° C | 46% | 1024 hPa | - | - | - | - |
| 1788340812 | 30° C | 44% | 1024.1 hPa | - | - | - | - |
| 1788339912 | 29.44° C | 48% | 1024.2 hPa | - | - | - | - |
| 1788339012 | 28.89° C | 49% | 1024.1 hPa | - | - | - | - |
| 1788338112 | 30° C | 47% | 1024 hPa | - | - | - | - |
| 1788337212 | 28.33° C | 51% | 1024.1 hPa | - | - | - | - |
| 1788336312 | 26.67° C | 67% | 1024.1 hPa | - | - | - | - |
| 1788335427 | 26.67° C | 78% | 1024 hPa | - | - | - | - |
* Rain since midnight (hover to see other rain measurements)
** Current wind speed in m/s (hover to see current wind gust speed)